GW0865 Weather Reports


time (UTC)temp
F
wind
direction
speed
knots
gust
knots
rain 1hr
in
rain 24hr
in
rain mn
in
humidity
%
barometer
mb
20260508064541 53 0 0.0 1.7 0.00 0.00 0.00 79 1015.2
20260508063056 51 0 0.0 2.6 0.00 0.00 0.00 82 1015.2
20260508061547 51 113 0.0 1.7 0.00 0.00 0.00 83 1015.1
20260508060047 49 0 0.0 0.9 0.00 0.00 0.00 86 1014.9
20260508054544 48 120 0.0 1.7 0.00 0.00 0.00 87 1014.9
20260508053039 48 0 0.0 0.9 0.00 0.00 0.00 88 1014.8
20260508051542 47 131 0.0 0.0 0.00 0.00 0.00 89 1014.8
20260508050042 47 0 0.0 0.0 0.00 0.00 0.00 90 1014.8
20260508044538 47 0 0.0 0.0 0.00 0.00 0.00 89 1014.9
20260508043054 47 0 0.0 0.0 0.00 0.00 0.00 88 1014.7
20260508041547 48 0 0.0 0.0 0.00 0.00 0.00 89 1014.6
20260508040040 47 0 0.0 0.0 0.00 0.00 0.00 89 1014.5
20260508034545 48 0 0.0 0.0 0.00 0.00 0.00 88 1014.5
20260508033040 48 0 0.0 0.9 0.00 0.00 0.00 89 1014.6
20260508031540 47 0 0.0 0.0 0.00 0.00 0.00 91 1014.6
20260508030043 47 0 0.0 0.0 0.00 0.00 0.00 90 1014.7
20260508024541 48 0 0.0 0.0 0.00 0.00 0.00 90 1014.8
20260508023047 48 0 0.0 0.0 0.00 0.00 0.00 89 1014.7
20260508021554 48 0 0.0 0.0 0.00 0.00 0.00 89 1014.6
20260508020046 49 0 0.0 2.6 0.00 0.00 0.00 88 1014.5
20260508014540 49 0 0.0 0.0 0.00 0.00 0.00 88 1014.4
20260508013052 49 0 0.0 0.0 0.00 0.00 0.00 88 1014.3
20260508011542 50 151 0.0 0.9 0.00 0.00 0.00 89 1014.4
20260508010043 50 0 0.0 0.0 0.00 0.00 0.00 89 1014.4
20260508004539 50 0 0.0 0.0 0.00 0.00 0.00 88 1014.5
20260508003046 50 0 0.0 0.9 0.00 0.00 0.00 87 1014.7
20260508001609 50 0 0.0 0.9 0.00 0.00 0.00 88 1014.6
20260508000047 50 0 0.0 0.0 0.00 0.00 0.00 88 1014.7
20260507234540 50 0 0.0 0.0 0.00 0.00 0.00 87 1014.7
20260507233039 50 0 0.0 0.9 0.00 0.00 0.00 86 1014.6
20260507231540 51 0 0.0 0.0 0.00 0.00 0.00 85 1014.7
20260507230038 51 0 0.0 0.0 0.00 0.00 0.00 83 1014.7
20260507224543 52 0 0.0 1.7 0.00 0.00 0.00 80 1014.8
20260507223044 52 0 0.0 0.0 0.00 0.00 0.00 77 1014.8
20260507221538 52 155 0.0 0.0 0.00 0.00 0.00 77 1014.7
20260507220047 52 0 0.0 0.0 0.00 0.00 0.00 77 1014.8
20260507214545 52 0 0.0 0.0 0.00 0.00 0.00 76 1014.7
20260507213036 53 0 0.0 0.0 0.00 0.00 0.00 75 1014.9
20260507211544 53 0 0.0 0.9 0.00 0.00 0.00 74 1014.7
20260507210040 53 0 0.0 0.9 0.00 0.00 0.00 73 1014.6
20260507204544 54 232 0.0 1.7 0.00 0.00 0.00 72 1014.7
20260507203039 54 225 0.0 1.7 0.00 0.00 0.00 70 1014.4
20260507201542 54 0 0.0 2.6 0.00 0.00 0.00 70 1014.4
20260507200042 55 231 0.0 2.6 0.00 0.00 0.00 69 1014.2
20260507194540 55 0 0.0 2.6 0.00 0.00 0.00 68 1014.1
20260507193040 55 0 0.9 3.5 0.00 0.00 0.00 67 1014.0
20260507191538 55 0 0.9 4.3 0.00 0.00 0.00 66 1013.9
20260507190052 56 220 0.9 2.6 0.00 0.00 0.00 64 1013.9
20260507184548 56 205 0.0 4.3 0.00 0.00 0.00 63 1013.8
20260507183039 56 269 2.6 4.3 0.00 0.00 0.00 62 1013.8
20260507181539 57 258 3.5 7.0 0.00 0.00 0.00 60 1013.7
20260507180039 57 241 0.9 4.3 0.00 0.00 0.00 59 1013.4
20260507174545 58 211 0.9 2.6 0.00 0.00 0.00 57 1013.5
20260507173047 58 191 1.7 6.1 0.00 0.00 0.00 55 1013.5
20260507171540 58 275 2.6 6.1 0.00 0.00 0.00 53 1013.5
20260507170045 59 261 1.7 5.2 0.00 0.00 0.00 53 1013.5
20260507164539 59 224 2.6 6.1 0.00 0.00 0.00 52 1013.4
20260507163039 59 182 1.7 5.2 0.00 0.00 0.00 51 1013.5
20260507161549 59 215 1.7 4.3 0.00 0.00 0.00 50 1013.5
20260507160038 60 119 1.7 5.2 0.00 0.00 0.00 48 1013.5
20260507154538 60 134 0.9 5.2 0.00 0.00 0.00 49 1013.4
20260507153050 60 118 0.0 4.3 0.00 0.00 0.00 50 1013.5
20260507151546 60 233 1.7 4.3 0.00 0.00 0.00 49 1013.6
20260507150043 60 163 1.7 5.2 0.00 0.00 0.00 50 1013.6
20260507144540 60 229 1.7 7.8 0.00 0.00 0.00 49 1013.7
20260507143037 60 219 1.7 7.0 0.00 0.00 0.00 49 1013.8
20260507141545 60 157 0.9 3.5 0.00 0.00 0.00 48 1013.9
20260507140049 60 137 2.6 8.7 0.00 0.00 0.00 50 1014.0
20260507134544 61 210 0.9 4.3 0.00 0.00 0.00 49 1014.0
20260507133041 60 268 1.7 4.3 0.00 0.00 0.00 51 1014.1
20260507131553 59 203 1.7 4.3 0.00 0.00 0.00 54 1014.3
20260507130043 59 80 1.7 6.1 0.00 0.00 0.00 53 1014.3
20260507124551 59 215 3.5 7.0 0.00 0.00 0.00 53 1014.3
20260507123041 59 102 1.7 7.0 0.00 0.00 0.00 49 1014.5
20260507121539 60 127 2.6 7.0 0.00 0.00 0.00 54 1014.3
20260507120042 59 158 0.9 7.0 0.00 0.00 0.00 53 1014.4
20260507114555 59 141 0.0 3.5 0.00 0.00 0.00 60 1014.4
20260507113042 58 112 0.9 4.3 0.00 0.00 0.00 60 1014.4
20260507111538 56 355 0.9 6.1 0.00 0.00 0.00 65 1014.6
20260507110049 55 99 1.7 5.2 0.00 0.00 0.00 66 1014.9
20260507104547 56 257 0.0 2.6 0.00 0.00 0.00 67 1015.1
20260507103045 55 230 0.9 2.6 0.00 0.00 0.00 67 1015.1
20260507101541 55 201 0.0 3.5 0.00 0.00 0.00 71 1015.2
20260507100041 54 180 0.9 3.5 0.00 0.00 0.00 72 1015.1
20260507094541 52 134 0.9 4.3 0.00 0.00 0.00 75 1015.1
20260507093045 52 156 0.9 3.5 0.00 0.00 0.00 78 1015.0
20260507091549 51 122 0.0 2.6 0.00 0.00 0.00 81 1015.0
20260507090043 51 119 0.9 3.5 0.00 0.00 0.00 82 1015.0
20260507084540 50 112 0.0 3.5 0.00 0.00 0.00 84 1015.1
20260507083040 49 115 1.7 3.5 0.00 0.00 0.00 84 1015.1
20260507081547 48 56 1.7 7.0 0.00 0.00 0.00 85 1015.1
20260507080048 48 89 0.9 2.6 0.00 0.00 0.00 87 1015.1
20260507074557 47 163 0.9 4.3 0.00 0.00 0.00 88 1015.1
20260507073041 46 93 0.9 3.5 0.00 0.00 0.00 89 1015.0
20260507071540 46 86 0.9 3.5 0.00 0.00 0.00 89 1015.0
20260507070038 45 106 0.9 4.3 0.00 0.00 0.00 89 1014.9